SWA3199 KDEN-KMSY

Flight info

Callsign SWA3199
Flight time N/A
Altitude 37000
Route SLEEK2 SLEEK KA39Y NOSEW RUFFS ACT LFK LSU AWDAD1
Aircraft B38M/M-SADE2E3GHIJ4J7P2RWZ/LB1D1

Departure

Time N/A
Airport Denver International Airport (KDEN)

Arrival

Time 2026-04-30 19:47
Airport Louis Armstrong New Orleans International Airport (KMSY)
Time Latitude Longitude Altitude Speed Heading
2026-04-30 17:39 39.68252 -104.37339 15959 ft 337 kts 202°
2026-04-30 17:41 39.48935 -104.44501 20487 ft 387 kts 174°
2026-04-30 17:42 39.43586 -104.43275 21586 ft 392 kts 173°
2026-04-30 17:42 39.35439 -104.41323 23199 ft 401 kts 174°
2026-04-30 17:43 39.29917 -104.39993 24102 ft 407 kts 174°
2026-04-30 17:44 39.21520 -104.37973 25371 ft 415 kts 175°
2026-04-30 17:44 39.12934 -104.35745 26610 ft 427 kts 172°
2026-04-30 17:46 38.98322 -104.31046 28593 ft 440 kts 174°
2026-04-30 17:47 38.86362 -104.27255 30136 ft 448 kts 176°
2026-04-30 17:48 38.74143 -104.23395 31346 ft 455 kts 177°
2026-04-30 17:48 38.64871 -104.20475 32152 ft 461 kts 178°
2026-04-30 17:49 38.52425 -104.16481 33574 ft 470 kts 172°
2026-04-30 17:50 38.41240 -104.06001 34709 ft 510 kts 151°
2026-04-30 17:51 38.33138 -103.97298 35572 ft 510 kts 150°
2026-04-30 17:52 38.25012 -103.88590 36353 ft 509 kts 150°
2026-04-30 17:53 38.11484 -103.74153 37156 ft 509 kts 150°
2026-04-30 17:54 38.00632 -103.62284 37186 ft 518 kts 149°
2026-04-30 17:56 37.78906 -103.38320 37097 ft 521 kts 149°
2026-04-30 17:58 37.62522 -103.20378 37091 ft 521 kts 150°
2026-04-30 18:00 37.40547 -102.96482 37078 ft 523 kts 150°
2026-04-30 18:01 37.26801 -102.81632 37055 ft 522 kts 150°
2026-04-30 18:02 37.10204 -102.63801 37054 ft 524 kts 151°
2026-04-30 18:04 36.93635 -102.46105 37056 ft 523 kts 151°
2026-04-30 18:06 36.71473 -102.22601 37066 ft 523 kts 151°
2026-04-30 18:08 36.52094 -102.02192 37084 ft 522 kts 151°
2026-04-30 18:10 36.29860 -101.79077 37073 ft 520 kts 151°
2026-04-30 18:11 36.10407 -101.58995 37072 ft 521 kts 151°
2026-04-30 18:13 35.96516 -101.44736 37078 ft 521 kts 151°
2026-04-30 18:14 35.82545 -101.30465 37133 ft 521 kts 151°
2026-04-30 18:15 35.65777 -101.13423 37134 ft 522 kts 151°
2026-04-30 18:16 35.54600 -101.02116 37139 ft 522 kts 151°
2026-04-30 18:17 35.49110 -100.96199 37139 ft 527 kts 148°
2026-04-30 18:18 35.40938 -100.87214 37108 ft 526 kts 148°
2026-04-30 18:18 35.35472 -100.81233 37087 ft 526 kts 148°
2026-04-30 18:19 35.30010 -100.75267 37069 ft 526 kts 148°
2026-04-30 18:19 35.24581 -100.69348 37049 ft 526 kts 149°
2026-04-30 18:20 35.19114 -100.63399 37062 ft 527 kts 149°
2026-04-30 18:20 35.13636 -100.57450 37062 ft 526 kts 149°
2026-04-30 18:21 35.08164 -100.51518 37071 ft 527 kts 149°
2026-04-30 18:21 35.02714 -100.45621 37026 ft 528 kts 149°
2026-04-30 18:22 34.97198 -100.39664 37075 ft 531 kts 149°
2026-04-30 18:22 34.88905 -100.30728 37068 ft 530 kts 149°
2026-04-30 18:23 34.83371 -100.24779 37071 ft 530 kts 149°
2026-04-30 18:23 34.77866 -100.18871 37058 ft 532 kts 149°
2026-04-30 18:24 34.69541 -100.09960 37053 ft 532 kts 149°
2026-04-30 18:25 34.63981 -100.04022 37062 ft 532 kts 149°
2026-04-30 18:25 34.55643 -99.95138 37027 ft 531 kts 149°
2026-04-30 18:26 34.47298 -99.86271 37049 ft 531 kts 149°
2026-04-30 18:27 34.38949 -99.77424 37049 ft 532 kts 149°
2026-04-30 18:28 34.30590 -99.68590 37038 ft 531 kts 149°
2026-04-30 18:28 34.22274 -99.59827 37034 ft 530 kts 149°
2026-04-30 18:29 34.11130 -99.48120 37035 ft 530 kts 149°
2026-04-30 18:30 34.00003 -99.36473 37041 ft 529 kts 149°
2026-04-30 18:31 33.91674 -99.27784 37575 ft 530 kts 149°
2026-04-30 18:32 33.86094 -99.21974 37921 ft 530 kts 149°
2026-04-30 18:32 33.83312 -99.19082 38187 ft 528 kts 149°
2026-04-30 18:32 33.77761 -99.13319 38628 ft 526 kts 149°
2026-04-30 18:33 33.74989 -99.10445 38799 ft 526 kts 149°
2026-04-30 18:33 33.69453 -99.04712 39045 ft 525 kts 149°
2026-04-30 18:33 33.66681 -99.01846 39027 ft 526 kts 149°
2026-04-30 18:34 33.58384 -98.93281 39016 ft 523 kts 149°
2026-04-30 18:35 33.52870 -98.87601 39024 ft 522 kts 149°
2026-04-30 18:35 33.47404 -98.81979 39018 ft 522 kts 149°
2026-04-30 18:36 33.39149 -98.73511 39020 ft 522 kts 149°
2026-04-30 18:37 33.30899 -98.65068 39011 ft 519 kts 149°
2026-04-30 18:37 33.25408 -98.59461 39019 ft 519 kts 149°
2026-04-30 18:38 33.19914 -98.53860 39019 ft 519 kts 149°
2026-04-30 18:38 33.14414 -98.48262 39015 ft 519 kts 149°
2026-04-30 18:39 33.08914 -98.42673 39008 ft 519 kts 149°
2026-04-30 18:39 33.03441 -98.37120 39013 ft 519 kts 149°
2026-04-30 18:40 32.97945 -98.31552 39008 ft 519 kts 149°
2026-04-30 18:40 32.92440 -98.25986 39007 ft 519 kts 149°
2026-04-30 18:41 32.86759 -98.20851 39015 ft 507 kts 156°
2026-04-30 18:41 32.80901 -98.16187 39007 ft 504 kts 156°
2026-04-30 18:42 32.75050 -98.11564 39021 ft 505 kts 156°
2026-04-30 18:42 32.66315 -98.04677 39018 ft 505 kts 156°
2026-04-30 18:45 32.34261 -97.79542 38984 ft 501 kts 156°
2026-04-30 18:46 32.28445 -97.75005 38984 ft 500 kts 156°
2026-04-30 18:46 32.23583 -97.71217 38984 ft 500 kts 156°
2026-04-30 18:47 32.17811 -97.66727 38989 ft 500 kts 156°
2026-04-30 18:47 32.11999 -97.62213 38984 ft 500 kts 156°
2026-04-30 18:48 32.06214 -97.57727 38981 ft 497 kts 156°
2026-04-30 18:48 32.00422 -97.53242 38984 ft 498 kts 156°
2026-04-30 18:49 31.94671 -97.48796 38984 ft 498 kts 156°
2026-04-30 18:49 31.88884 -97.44329 38989 ft 498 kts 156°
2026-04-30 18:50 31.83093 -97.39865 38976 ft 498 kts 156°
2026-04-30 18:50 31.77300 -97.35407 38990 ft 498 kts 156°
2026-04-30 18:51 31.71544 -97.30975 38994 ft 499 kts 154°
2026-04-30 18:51 31.68857 -97.28311 38970 ft 515 kts 139°
2026-04-30 18:51 31.66669 -97.24928 38989 ft 528 kts 125°
2026-04-30 18:51 31.65170 -97.20960 38975 ft 539 kts 109°
2026-04-30 18:52 31.64355 -97.16645 39014 ft 542 kts 105°
2026-04-30 18:52 31.62716 -97.07995 38984 ft 544 kts 105°
2026-04-30 18:53 31.61094 -96.99331 38979 ft 544 kts 105°
2026-04-30 18:53 31.59482 -96.90742 38978 ft 541 kts 104°
2026-04-30 18:53 31.58534 -96.86498 38948 ft 536 kts 116°
2026-04-30 18:54 31.56754 -96.82754 38947 ft 518 kts 136°
2026-04-30 18:54 31.54197 -96.79916 38951 ft 499 kts 155°
2026-04-30 18:54 31.51243 -96.77854 38960 ft 495 kts 157°
2026-04-30 18:55 31.45589 -96.73013 38977 ft 507 kts 150°
2026-04-30 18:55 31.37331 -96.65328 38919 ft 508 kts 149°
2026-04-30 18:56 31.29050 -96.57544 38906 ft 510 kts 149°
2026-04-30 18:57 31.20748 -96.49756 38872 ft 510 kts 149°
2026-04-30 18:57 31.15212 -96.44573 38877 ft 509 kts 149°
2026-04-30 18:58 31.06983 -96.36884 38826 ft 506 kts 149°
2026-04-30 18:59 30.98773 -96.29230 38835 ft 503 kts 149°
2026-04-30 19:00 30.87831 -96.19057 38911 ft 503 kts 149°
2026-04-30 19:01 30.76941 -96.08961 38901 ft 500 kts 148°
2026-04-30 19:02 30.68788 -96.01423 38847 ft 499 kts 149°
2026-04-30 19:03 30.57965 -95.91441 38790 ft 499 kts 149°
2026-04-30 19:04 30.47093 -95.81444 38795 ft 499 kts 149°
2026-04-30 19:05 30.36218 -95.71473 38850 ft 499 kts 149°
2026-04-30 19:06 30.25371 -95.61557 38927 ft 497 kts 148°
2026-04-30 19:06 30.17248 -95.54150 38920 ft 495 kts 148°
2026-04-30 19:07 30.09122 -95.46757 38923 ft 495 kts 148°
2026-04-30 19:08 29.99165 -95.35903 38878 ft 511 kts 119°
2026-04-30 19:08 29.97893 -95.32060 38925 ft 515 kts 107°
2026-04-30 19:09 29.97371 -95.23851 38900 ft 518 kts 79°
2026-04-30 19:09 29.98478 -95.15641 38902 ft 519 kts 79°
2026-04-30 19:10 30.00827 -94.99185 38909 ft 523 kts 79°
2026-04-30 19:11 30.02611 -94.86718 38942 ft 526 kts 79°
2026-04-30 19:12 30.03792 -94.78427 38895 ft 522 kts 79°
2026-04-30 19:12 30.04955 -94.70220 38899 ft 522 kts 80°
2026-04-30 19:13 30.07281 -94.53682 38889 ft 522 kts 79°
2026-04-30 19:14 30.08058 -94.48139 38898 ft 522 kts 79°
2026-04-30 19:14 30.09200 -94.39928 38901 ft 522 kts 79°
2026-04-30 19:15 30.10347 -94.31650 38894 ft 522 kts 79°
2026-04-30 19:15 30.12056 -94.19245 38911 ft 522 kts 79°
2026-04-30 19:16 30.13192 -94.10951 38899 ft 523 kts 80°
2026-04-30 19:17 30.14884 -93.98527 38921 ft 524 kts 80°
2026-04-30 19:17 30.16570 -93.86049 38917 ft 524 kts 80°
2026-04-30 19:18 30.18247 -93.73544 38912 ft 526 kts 80°
2026-04-30 19:19 30.19357 -93.65221 38919 ft 528 kts 80°
2026-04-30 19:19 30.21026 -93.52620 38913 ft 529 kts 80°
2026-04-30 19:20 30.22132 -93.44225 38915 ft 529 kts 80°
2026-04-30 19:21 30.23782 -93.31605 38932 ft 529 kts 80°
2026-04-30 19:22 30.25957 -93.14835 38935 ft 529 kts 80°
2026-04-30 19:23 30.29192 -92.89553 38928 ft 531 kts 80°
2026-04-30 19:24 30.30790 -92.76929 38941 ft 531 kts 80°
2026-04-30 19:25 30.33441 -92.55753 38935 ft 533 kts 80°
2026-04-30 19:26 30.35540 -92.38761 38934 ft 533 kts 80°
2026-04-30 19:27 30.37091 -92.26096 38940 ft 532 kts 81°
2026-04-30 19:28 30.38634 -92.13389 38580 ft 528 kts 81°
2026-04-30 19:28 30.39662 -92.04870 36507 ft 534 kts 81°
2026-04-30 19:29 30.40665 -91.96501 35210 ft 515 kts 81°
2026-04-30 19:29 30.41154 -91.92415 34526 ft 510 kts 81°
2026-04-30 19:30 30.42629 -91.79996 31807 ft 529 kts 81°
2026-04-30 19:30 30.43633 -91.71496 29950 ft 536 kts 81°
2026-04-30 19:31 30.44648 -91.62860 27640 ft 544 kts 81°
2026-04-30 19:31 30.45157 -91.58515 26541 ft 545 kts 81°
2026-04-30 19:31 30.46166 -91.49850 24663 ft 542 kts 81°
2026-04-30 19:32 30.46665 -91.45546 24003 ft 535 kts 81°
2026-04-30 19:32 30.47154 -91.41306 23358 ft 528 kts 82°
2026-04-30 19:32 30.47226 -91.37065 22669 ft 523 kts 95°
2026-04-30 19:32 30.46780 -91.32925 21830 ft 518 kts 103°
2026-04-30 19:33 30.45567 -91.29022 21053 ft 512 kts 119°
2026-04-30 19:33 30.43673 -91.25629 20400 ft 490 kts 134°
2026-04-30 19:33 30.41285 -91.22924 19390 ft 474 kts 144°
2026-04-30 19:33 30.38795 -91.20472 18551 ft 463 kts 145°
2026-04-30 19:34 30.36375 -91.18157 17781 ft 451 kts 146°
2026-04-30 19:34 30.33979 -91.15897 17049 ft 438 kts 146°
2026-04-30 19:34 30.29364 -91.11599 15735 ft 414 kts 146°
2026-04-30 19:35 30.27151 -91.09547 15230 ft 401 kts 146°
2026-04-30 19:35 30.25011 -91.07563 14781 ft 387 kts 146°
2026-04-30 19:35 30.22950 -91.05655 14344 ft 374 kts 146°
2026-04-30 19:35 30.20953 -91.03807 13953 ft 362 kts 146°
2026-04-30 19:36 30.19020 -91.02019 13545 ft 350 kts 146°
2026-04-30 19:36 30.17145 -91.00285 13127 ft 340 kts 146°
2026-04-30 19:36 30.13568 -90.96973 12373 ft 328 kts 144°
2026-04-30 19:37 30.12073 -90.94937 11717 ft 339 kts 120°
2026-04-30 19:37 30.11363 -90.92342 11034 ft 343 kts 96°
2026-04-30 19:37 30.11187 -90.89600 10367 ft 343 kts 95°
2026-04-30 19:37 30.10988 -90.86863 9881 ft 336 kts 95°
2026-04-30 19:38 30.10827 -90.84285 9898 ft 312 kts 96°
2026-04-30 19:38 30.10615 -90.81806 9367 ft 310 kts 96°
2026-04-30 19:38 30.10406 -90.79322 8707 ft 312 kts 96°
2026-04-30 19:38 30.10202 -90.76824 8062 ft 312 kts 96°
2026-04-30 19:39 30.10003 -90.74369 7499 ft 310 kts 96°
2026-04-30 19:39 30.09778 -90.71913 7064 ft 303 kts 98°
2026-04-30 19:39 30.09422 -90.69552 6705 ft 294 kts 102°
2026-04-30 19:39 30.08973 -90.67281 6307 ft 286 kts 104°
2026-04-30 19:40 30.08485 -90.65087 5941 ft 278 kts 105°
2026-04-30 19:40 30.07998 -90.63002 5638 ft 261 kts 107°
2026-04-30 19:40 30.07533 -90.61039 5307 ft 246 kts 107°
2026-04-30 19:40 30.07089 -90.59180 4995 ft 234 kts 107°
2026-04-30 19:41 30.06684 -90.57477 4730 ft 210 kts 107°
2026-04-30 19:41 30.06319 -90.55946 4465 ft 188 kts 107°
2026-04-30 19:41 30.05976 -90.54510 4216 ft 179 kts 108°
2026-04-30 19:41 30.05654 -90.53161 4003 ft 176 kts 108°
2026-04-30 19:42 30.05328 -90.51803 3788 ft 174 kts 108°
2026-04-30 19:42 30.05006 -90.50461 3562 ft 173 kts 107°
2026-04-30 19:42 30.04686 -90.49126 3348 ft 172 kts 108°
2026-04-30 19:42 30.04367 -90.47796 3157 ft 171 kts 107°
2026-04-30 19:43 30.04051 -90.46476 2958 ft 169 kts 106°
2026-04-30 19:43 30.03744 -90.45191 2774 ft 163 kts 106°
2026-04-30 19:43 30.03447 -90.43949 2564 ft 159 kts 106°
2026-04-30 19:44 30.02858 -90.41490 2170 ft 158 kts 105°
2026-04-30 19:44 30.02571 -90.40292 1975 ft 157 kts 105°
2026-04-30 19:44 30.02280 -90.39080 1789 ft 156 kts 105°
2026-04-30 19:44 30.01993 -90.37880 1599 ft 155 kts 105°
2026-04-30 19:45 30.01706 -90.36684 1403 ft 154 kts 104°
2026-04-30 19:45 30.01421 -90.35499 1223 ft 153 kts 104°
2026-04-30 19:45 30.01139 -90.34322 1034 ft 152 kts 104°
2026-04-30 19:45 30.00859 -90.33153 837 ft 149 kts 104°
2026-04-30 19:46 30.00582 -90.31999 690 ft 149 kts 105°
2026-04-30 19:46 30.00300 -90.30875 508 ft 144 kts 103°
2026-04-30 19:46 30.00049 -90.29784 294 ft 143 kts 103°
2026-04-30 19:46 29.99785 -90.28661 137 ft 144 kts 106°
2026-04-30 19:47 29.99521 -90.27591 8 ft 129 kts 105°
2026-04-30 19:47 29.99378 -90.26996 15 ft 100 kts 106°
2026-04-30 19:47 29.99223 -90.26347 15 ft 50 kts 105°
2026-04-30 19:47 29.99132 -90.25966 18 ft 43 kts 105°
2026-04-30 19:48 29.99163 -90.25771 14 ft 23 kts 59°
2026-04-30 19:48 29.99234 -90.25635 15 ft 17 kts 59°